TimeCST,TemperatureF,Dew PointF,Humidity,Sea Level PressureIn,VisibilityMPH,Wind Direction,Wind SpeedMPH,Gust SpeedMPH,PrecipitationIn,Events,Conditions,WindDirDegrees,DateUTC
12:15 AM,16.7,13.1,86,30.20,10.0,West,10.4,-,N/A,,Clear,280,2012-02-18 06:15:00
12:35 AM,16.5,12.9,86,30.20,10.0,West,10.4,-,N/A,,Clear,280,2012-02-18 06:35:00
12:55 AM,15.8,12.7,88,30.20,10.0,West,11.5,-,N/A,,Clear,280,2012-02-18 06:55:00
1:15 AM,17.1,13.5,86,30.20,10.0,WNW,12.7,-,N/A,,Clear,300,2012-02-18 07:15:00
1:35 AM,16.2,12.7,86,30.20,10.0,WNW,12.7,-,N/A,,Clear,300,2012-02-18 07:35:00
1:55 AM,17.6,12.9,82,30.20,10.0,WNW,12.7,-,N/A,,Clear,300,2012-02-18 07:55:00
2:15 AM,21.0,13.5,73,30.21,10.0,WNW,12.7,-,N/A,,Clear,300,2012-02-18 08:15:00
2:35 AM,20.1,12.9,74,30.20,10.0,NW,11.5,-,N/A,,Clear,310,2012-02-18 08:35:00
2:55 AM,20.7,12.9,72,30.19,10.0,NW,12.7,-,N/A,,Clear,320,2012-02-18 08:55:00
3:15 AM,20.7,12.7,71,30.19,10.0,NW,9.2,-,N/A,,Clear,320,2012-02-18 09:15:00
3:35 AM,19.9,12.6,73,30.19,10.0,NW,10.4,-,N/A,,Clear,320,2012-02-18 09:35:00
3:55 AM,19.4,12.2,74,30.18,10.0,NNW,9.2,-,N/A,,Clear,330,2012-02-18 09:55:00
4:15 AM,16.9,11.3,79,30.18,10.0,NNW,8.1,-,N/A,,Clear,330,2012-02-18 10:15:00
4:35 AM,15.8,10.8,80,30.19,10.0,NNW,9.2,-,N/A,,Clear,330,2012-02-18 10:35:00
4:55 AM,17.8,11.7,77,30.18,10.0,NNW,10.4,-,N/A,,Clear,340,2012-02-18 10:55:00
5:15 AM,15.8,11.1,82,30.19,10.0,NNW,8.1,-,N/A,,Clear,340,2012-02-18 11:15:00
5:35 AM,15.8,10.9,81,30.19,10.0,North,6.9,-,N/A,,Clear,350,2012-02-18 11:35:00
5:55 AM,14.5,9.9,82,30.19,10.0,North,5.8,-,N/A,,Clear,350,2012-02-18 11:55:00
6:15 AM,15.1,10.9,84,30.20,10.0,North,5.8,-,N/A,,Clear,350,2012-02-18 12:15:00
6:35 AM,14.9,10.9,84,30.20,10.0,North,4.6,-,N/A,,Clear,360,2012-02-18 12:35:00
6:55 AM,14.9,10.9,84,30.20,10.0,NNW,5.8,-,N/A,,Clear,340,2012-02-18 12:55:00
7:15 AM,16.7,11.5,80,30.21,10.0,NNW,4.6,-,N/A,,Clear,330,2012-02-18 13:15:00
7:35 AM,12.4,9.0,86,30.22,10.0,NNW,3.5,-,N/A,,Clear,330,2012-02-18 13:35:00
7:55 AM,13.1,9.5,86,30.23,10.0,Calm,Calm,-,N/A,,Clear,0,2012-02-18 13:55:00
8:15 AM,15.8,11.3,82,30.24,10.0,Calm,Calm,-,N/A,,Clear,0,2012-02-18 14:15:00
8:35 AM,16.3,12.4,84,30.25,10.0,Calm,Calm,-,N/A,,Clear,0,2012-02-18 14:35:00
9:15 AM,19.0,14.0,81,30.26,10.0,Calm,Calm,-,N/A,,Clear,0,2012-02-18 15:15:00
9:35 AM,20.7,15.1,79,30.26,10.0,Calm,Calm,-,N/A,,Clear,0,2012-02-18 15:35:00
9:55 AM,22.5,16.3,77,30.26,10.0,Calm,Calm,-,N/A,,Clear,0,2012-02-18 15:55:00
10:15 AM,24.1,17.6,76,30.25,10.0,Calm,Calm,-,N/A,,Clear,0,2012-02-18 16:15:00
10:35 AM,25.7,18.0,73,30.25,10.0,ESE,3.5,-,N/A,,Clear,120,2012-02-18 16:35:00
10:55 AM,25.9,18.0,72,30.25,10.0,SE,3.5,-,N/A,,Clear,140,2012-02-18 16:55:00
11:15 AM,26.2,18.3,72,30.25,10.0,Calm,Calm,-,N/A,,Clear,0,2012-02-18 17:15:00
11:35 AM,27.1,18.1,69,30.24,10.0,SE,3.5,-,N/A,,Clear,130,2012-02-18 17:35:00
11:55 AM,27.5,18.3,68,30.23,10.0,Calm,Calm,-,N/A,,Clear,0,2012-02-18 17:55:00
12:15 PM,28.0,18.9,68,30.22,10.0,Calm,Calm,-,N/A,,Clear,0,2012-02-18 18:15:00
12:35 PM,28.4,19.8,70,30.21,10.0,Calm,Calm,-,N/A,,Clear,0,2012-02-18 18:35:00
12:55 PM,29.5,20.7,70,30.20,10.0,Calm,Calm,-,N/A,,Clear,0,2012-02-18 18:55:00
1:15 PM,30.6,19.6,64,30.19,10.0,Calm,Calm,-,N/A,,Clear,0,2012-02-18 19:15:00
1:35 PM,30.4,19.4,64,30.18,10.0,Calm,Calm,-,N/A,,Clear,0,2012-02-18 19:35:00
1:55 PM,31.3,19.9,63,30.18,10.0,Calm,Calm,-,N/A,,Clear,0,2012-02-18 19:55:00
2:15 PM,31.1,20.3,64,30.17,10.0,Calm,Calm,-,N/A,,Clear,0,2012-02-18 20:15:00
2:35 PM,31.3,19.9,63,30.17,10.0,Calm,Calm,-,N/A,,Clear,0,2012-02-18 20:35:00
3:15 PM,32.0,19.4,60,30.16,10.0,Calm,Calm,-,N/A,,Clear,0,2012-02-18 21:15:00
3:35 PM,32.9,19.0,57,30.16,10.0,Calm,Calm,-,N/A,,Clear,0,2012-02-18 21:35:00
3:55 PM,32.0,16.7,53,30.16,10.0,Calm,Calm,-,N/A,,Clear,0,2012-02-18 21:55:00
4:15 PM,32.2,16.9,53,30.15,10.0,Calm,Calm,-,N/A,,Clear,0,2012-02-18 22:15:00
4:35 PM,32.0,16.9,54,30.15,10.0,Calm,Calm,-,N/A,,Clear,0,2012-02-18 22:35:00
4:55 PM,31.8,18.9,59,30.15,10.0,Calm,Calm,-,N/A,,Clear,0,2012-02-18 22:55:00
5:15 PM,30.9,20.1,64,30.15,10.0,Calm,Calm,-,N/A,,Clear,0,2012-02-18 23:15:00
5:35 PM,30.0,19.8,66,30.14,10.0,Calm,Calm,-,N/A,,Clear,0,2012-02-18 23:35:00
5:55 PM,27.9,20.7,74,30.14,10.0,Calm,Calm,-,N/A,,Clear,0,2012-02-18 23:55:00
6:15 PM,27.9,19.6,71,30.16,10.0,SE,3.5,-,N/A,,Clear,140,2012-02-19 00:15:00
6:55 PM,24.3,18.7,79,30.16,10.0,SE,5.8,-,N/A,,Clear,130,2012-02-19 00:55:00
7:15 PM,23.0,19.2,85,30.15,10.0,ESE,5.8,-,N/A,,Clear,120,2012-02-19 01:15:00
7:35 PM,22.8,19.2,86,30.15,10.0,ESE,5.8,-,N/A,,Clear,120,2012-02-19 01:35:00
7:55 PM,23.4,19.4,85,30.14,10.0,ESE,4.6,-,N/A,,Clear,120,2012-02-19 01:55:00
8:15 PM,22.1,18.5,86,30.15,10.0,SE,4.6,-,N/A,,Clear,130,2012-02-19 02:15:00
8:35 PM,22.3,18.5,85,30.14,10.0,ESE,4.6,-,N/A,,Clear,120,2012-02-19 02:35:00
8:55 PM,22.6,18.1,83,30.14,10.0,SE,8.1,-,N/A,,Clear,130,2012-02-19 02:55:00
9:15 PM,21.9,18.0,85,30.14,10.0,SE,6.9,-,N/A,,Clear,130,2012-02-19 03:15:00
9:35 PM,21.4,18.0,87,30.14,10.0,SE,5.8,-,N/A,,Clear,140,2012-02-19 03:35:00
9:55 PM,20.8,17.6,87,30.14,10.0,South,3.5,-,N/A,,Clear,190,2012-02-19 03:55:00
10:15 PM,19.4,16.9,90,30.14,10.0,SW,5.8,-,N/A,,Clear,230,2012-02-19 04:15:00
10:35 PM,23.4,20.1,87,30.13,10.0,SSW,3.5,-,N/A,,Clear,200,2012-02-19 04:35:00
10:55 PM,23.5,19.6,85,30.13,10.0,Calm,Calm,-,N/A,,Clear,0,2012-02-19 04:55:00
11:15 PM,22.8,19.0,85,30.13,10.0,Calm,Calm,-,N/A,,Clear,0,2012-02-19 05:15:00
11:35 PM,22.3,19.4,89,30.12,10.0,SSW,4.6,-,N/A,,Clear,200,2012-02-19 05:35:00
11:55 PM,21.9,19.0,89,30.12,10.0,SSW,4.6,-,N/A,,Clear,200,2012-02-19 05:55:00